N614CB KCRQ-KBUR

Flight info

Callsign N614CB
Flight time 0h 36m
Altitude 10000
Route CWARD2 LAX SILEX
Aircraft SF50/L-SDGRWY/L

Departure

Time 2026-05-09 22:03
Airport McClellan-Palomar Airport (KCRQ)

Arrival

Time 2026-05-09 22:40
Airport Hollywood Burbank/Bob Hope Airport (KBUR)
Time Latitude Longitude Altitude Speed Heading
2026-05-09 21:55 33.12794 -117.27466 325 ft 0 kts 169°
2026-05-09 22:01 33.12786 -117.27445 325 ft 11 kts 78°
2026-05-09 22:02 33.12807 -117.27322 325 ft 15 kts 74°
2026-05-09 22:02 33.12858 -117.27263 326 ft 9 kts 341°
2026-05-09 22:02 33.12860 -117.27263 326 ft 0 kts 341°
2026-05-09 22:02 33.12879 -117.27271 327 ft 14 kts 345°
2026-05-09 22:03 33.12929 -117.27345 329 ft 13 kts 257°
2026-05-09 22:03 33.12862 -117.27759 326 ft 95 kts 259°
2026-05-09 22:03 33.12722 -117.28723 805 ft 129 kts 262°
2026-05-09 22:03 33.12562 -117.29850 1610 ft 147 kts 259°
2026-05-09 22:04 33.12331 -117.31129 2410 ft 162 kts 257°
2026-05-09 22:04 33.12066 -117.32514 3107 ft 191 kts 257°
2026-05-09 22:04 33.11727 -117.34150 3125 ft 206 kts 256°
2026-05-09 22:04 33.11365 -117.35815 3126 ft 208 kts 256°
2026-05-09 22:05 33.11000 -117.37492 3125 ft 210 kts 256°
2026-05-09 22:05 33.10631 -117.39182 3125 ft 211 kts 256°
2026-05-09 22:05 33.10263 -117.40871 3211 ft 207 kts 256°
2026-05-09 22:05 33.09924 -117.42430 3768 ft 182 kts 256°
2026-05-09 22:06 33.09622 -117.43812 4278 ft 168 kts 256°
2026-05-09 22:06 33.09325 -117.45178 4534 ft 171 kts 256°
2026-05-09 22:06 33.09026 -117.46551 4818 ft 172 kts 256°
2026-05-09 22:06 33.08727 -117.47931 5091 ft 172 kts 256°
2026-05-09 22:07 33.08431 -117.49302 5348 ft 173 kts 256°
2026-05-09 22:07 33.08129 -117.50694 5608 ft 174 kts 256°
2026-05-09 22:07 33.07955 -117.52120 5840 ft 174 kts 267°
2026-05-09 22:07 33.07897 -117.53564 6090 ft 175 kts 266°
2026-05-09 22:08 33.07787 -117.55014 6339 ft 176 kts 264°
2026-05-09 22:08 33.07671 -117.56465 6587 ft 176 kts 264°
2026-05-09 22:08 33.07552 -117.57921 6830 ft 177 kts 264°
2026-05-09 22:08 33.07435 -117.59383 7068 ft 178 kts 265°
2026-05-09 22:09 33.07317 -117.60850 7307 ft 178 kts 264°
2026-05-09 22:09 33.07199 -117.62322 7539 ft 179 kts 265°
2026-05-09 22:09 33.07080 -117.63801 7772 ft 180 kts 264°
2026-05-09 22:09 33.06960 -117.65290 7999 ft 180 kts 264°
2026-05-09 22:10 33.06880 -117.66293 8034 ft 187 kts 264°
2026-05-09 22:10 33.06751 -117.67879 8042 ft 196 kts 264°
2026-05-09 22:10 33.06618 -117.69525 8043 ft 202 kts 264°
2026-05-09 22:10 33.06526 -117.71214 8045 ft 206 kts 273°
2026-05-09 22:11 33.06892 -117.72874 8041 ft 209 kts 293°
2026-05-09 22:11 33.07715 -117.74309 8039 ft 212 kts 313°
2026-05-09 22:11 33.08836 -117.75456 8040 ft 213 kts 319°
2026-05-09 22:11 33.09956 -117.76589 8041 ft 214 kts 318°
2026-05-09 22:12 33.11103 -117.77762 8043 ft 215 kts 318°
2026-05-09 22:12 33.12229 -117.78910 8043 ft 215 kts 318°
2026-05-09 22:12 33.13370 -117.80070 8042 ft 216 kts 319°
2026-05-09 22:12 33.14512 -117.81233 8044 ft 216 kts 318°
2026-05-09 22:13 33.15655 -117.82394 8044 ft 216 kts 319°
2026-05-09 22:13 33.16801 -117.83562 8044 ft 216 kts 318°
2026-05-09 22:13 33.17945 -117.84728 8042 ft 216 kts 318°
2026-05-09 22:13 33.19121 -117.85847 8041 ft 216 kts 327°
2026-05-09 22:14 33.20523 -117.86493 8035 ft 218 kts 346°
2026-05-09 22:14 33.21990 -117.86838 8245 ft 206 kts 347°
2026-05-09 22:14 33.23314 -117.87168 8793 ft 186 kts 346°
2026-05-09 22:14 33.24580 -117.87485 9009 ft 187 kts 346°
2026-05-09 22:15 33.25856 -117.87806 9213 ft 188 kts 347°
2026-05-09 22:15 33.27136 -117.88123 9427 ft 188 kts 347°
2026-05-09 22:15 33.28419 -117.88444 9634 ft 189 kts 347°
2026-05-09 22:15 33.29708 -117.88763 9839 ft 189 kts 347°
2026-05-09 22:16 33.31001 -117.89087 10025 ft 191 kts 346°
2026-05-09 22:16 33.32320 -117.89416 10035 ft 201 kts 347°
2026-05-09 22:16 33.33714 -117.89763 10042 ft 208 kts 347°
2026-05-09 22:16 33.35144 -117.90120 10046 ft 212 kts 347°
2026-05-09 22:17 33.36604 -117.90482 10046 ft 215 kts 347°
2026-05-09 22:17 33.38064 -117.90899 10042 ft 216 kts 339°
2026-05-09 22:17 33.39348 -117.91812 10039 ft 215 kts 320°
2026-05-09 22:17 33.40517 -117.92942 10041 ft 216 kts 321°
2026-05-09 22:18 33.41706 -117.94053 10042 ft 217 kts 321°
2026-05-09 22:18 33.42897 -117.95173 10042 ft 218 kts 321°
2026-05-09 22:18 33.44088 -117.96301 10043 ft 218 kts 320°
2026-05-09 22:18 33.45279 -117.97428 10043 ft 218 kts 321°
2026-05-09 22:19 33.46475 -117.98560 10044 ft 219 kts 320°
2026-05-09 22:19 33.47653 -117.99675 10043 ft 219 kts 321°
2026-05-09 22:19 33.48847 -118.00806 10043 ft 219 kts 320°
2026-05-09 22:19 33.50044 -118.01939 10043 ft 219 kts 321°
2026-05-09 22:20 33.51236 -118.03070 10043 ft 219 kts 320°
2026-05-09 22:20 33.52432 -118.04204 10044 ft 219 kts 320°
2026-05-09 22:20 33.53627 -118.05337 10044 ft 219 kts 320°
2026-05-09 22:20 33.54822 -118.06470 10044 ft 219 kts 321°
2026-05-09 22:21 33.56018 -118.07603 10044 ft 219 kts 321°
2026-05-09 22:21 33.57211 -118.08736 10043 ft 219 kts 320°
2026-05-09 22:21 33.58408 -118.09872 10044 ft 219 kts 320°
2026-05-09 22:21 33.59589 -118.10993 10043 ft 219 kts 320°
2026-05-09 22:22 33.60798 -118.12142 10044 ft 219 kts 320°
2026-05-09 22:22 33.61978 -118.13263 10044 ft 219 kts 320°
2026-05-09 22:22 33.63173 -118.14401 10044 ft 219 kts 320°
2026-05-09 22:22 33.64367 -118.15536 10044 ft 219 kts 320°
2026-05-09 22:23 33.65559 -118.16672 10043 ft 219 kts 320°
2026-05-09 22:23 33.66775 -118.17831 9807 ft 228 kts 320°
2026-05-09 22:23 33.68035 -118.19030 9505 ft 233 kts 321°
2026-05-09 22:23 33.69310 -118.20245 9210 ft 235 kts 320°
2026-05-09 22:24 33.70596 -118.21470 8911 ft 236 kts 320°
2026-05-09 22:24 33.71885 -118.22699 8611 ft 237 kts 320°
2026-05-09 22:24 33.73174 -118.23930 8312 ft 237 kts 320°
2026-05-09 22:24 33.74464 -118.25158 8082 ft 234 kts 320°
2026-05-09 22:25 33.75711 -118.26350 8079 ft 225 kts 320°
2026-05-09 22:25 33.76920 -118.27503 8075 ft 219 kts 320°
2026-05-09 22:25 33.78105 -118.28634 8074 ft 216 kts 320°
2026-05-09 22:25 33.79274 -118.29752 8070 ft 213 kts 320°
2026-05-09 22:26 33.80432 -118.30859 8070 ft 212 kts 320°
2026-05-09 22:26 33.81588 -118.31964 8070 ft 211 kts 320°
2026-05-09 22:26 33.82745 -118.33072 7841 ft 220 kts 320°
2026-05-09 22:26 33.83958 -118.34233 7594 ft 225 kts 320°
2026-05-09 22:27 33.85197 -118.35420 7346 ft 228 kts 320°
2026-05-09 22:27 33.86443 -118.36613 7097 ft 230 kts 320°
2026-05-09 22:27 33.87696 -118.37814 6848 ft 231 kts 320°
2026-05-09 22:27 33.88955 -118.39021 6599 ft 231 kts 320°
2026-05-09 22:28 33.90212 -118.40225 6349 ft 231 kts 320°
2026-05-09 22:28 33.91472 -118.41435 6102 ft 231 kts 320°
2026-05-09 22:28 33.92704 -118.42615 6082 ft 223 kts 320°
2026-05-09 22:28 33.93960 -118.43656 6080 ft 216 kts 330°
2026-05-09 22:29 33.95275 -118.44505 6077 ft 213 kts 330°
2026-05-09 22:29 33.96566 -118.45371 6076 ft 212 kts 329°
2026-05-09 22:29 33.97831 -118.46223 6076 ft 203 kts 329°
2026-05-09 22:29 33.99043 -118.47030 6072 ft 196 kts 329°
2026-05-09 22:30 34.00218 -118.47815 6070 ft 191 kts 329°
2026-05-09 22:30 34.01382 -118.48595 6072 ft 193 kts 329°
2026-05-09 22:30 34.02561 -118.49384 6073 ft 195 kts 329°
2026-05-09 22:30 34.03737 -118.50174 6075 ft 196 kts 329°
2026-05-09 22:31 34.04933 -118.50975 6075 ft 197 kts 329°
2026-05-09 22:31 34.06129 -118.51777 6075 ft 197 kts 330°
2026-05-09 22:31 34.07328 -118.52582 6084 ft 196 kts 329°
2026-05-09 22:31 34.08487 -118.53358 6319 ft 185 kts 329°
2026-05-09 22:32 34.09612 -118.54110 6255 ft 193 kts 330°
2026-05-09 22:32 34.10858 -118.54948 5715 ft 217 kts 329°
2026-05-09 22:32 34.12226 -118.55872 4859 ft 239 kts 329°
2026-05-09 22:32 34.13731 -118.56884 3652 ft 254 kts 330°
2026-05-09 22:33 34.15227 -118.57882 3294 ft 229 kts 330°
2026-05-09 22:33 34.16535 -118.58759 3279 ft 203 kts 329°
2026-05-09 22:33 34.17713 -118.59553 3281 ft 186 kts 329°
2026-05-09 22:33 34.18818 -118.60273 3278 ft 174 kts 336°
2026-05-09 22:34 34.19978 -118.60198 3282 ft 173 kts 28°
2026-05-09 22:34 34.20601 -118.59026 3279 ft 171 kts 85°
2026-05-09 22:34 34.20283 -118.57678 3289 ft 167 kts 114°
2026-05-09 22:34 34.20060 -118.56324 3288 ft 163 kts 91°
2026-05-09 22:35 34.20027 -118.55003 3282 ft 152 kts 92°
2026-05-09 22:35 34.19992 -118.53766 3287 ft 141 kts 91°
2026-05-09 22:35 34.19977 -118.52684 3286 ft 122 kts 90°
2026-05-09 22:35 34.19965 -118.51720 3279 ft 108 kts 91°
2026-05-09 22:36 34.19953 -118.50871 3278 ft 95 kts 91°
2026-05-09 22:36 34.19953 -118.50102 3221 ft 95 kts 90°
2026-05-09 22:36 34.19925 -118.49291 3243 ft 91 kts 93°
2026-05-09 22:36 34.19917 -118.48451 2985 ft 117 kts 88°
2026-05-09 22:37 34.19969 -118.47350 2555 ft 137 kts 86°
2026-05-09 22:37 34.19971 -118.46157 2160 ft 143 kts 92°
2026-05-09 22:37 34.19905 -118.44988 1952 ft 133 kts 95°
2026-05-09 22:37 34.19859 -118.43928 1837 ft 125 kts 91°
2026-05-09 22:38 34.19868 -118.42877 1691 ft 120 kts 89°
2026-05-09 22:38 34.19880 -118.41896 1587 ft 116 kts 90°
2026-05-09 22:38 34.19865 -118.40913 1501 ft 114 kts 91°
2026-05-09 22:39 34.19830 -118.39004 1271 ft 114 kts 92°
2026-05-09 22:39 34.19805 -118.38067 1069 ft 102 kts 90°
2026-05-09 22:39 34.19806 -118.37273 857 ft 87 kts 91°
2026-05-09 22:40 34.19781 -118.36050 724 ft 57 kts 91°
2026-05-09 22:40 34.19777 -118.35649 721 ft 34 kts 91°
2026-05-09 22:40 34.19839 -118.35531 723 ft 17 kts 351°
2026-05-09 22:40 34.19853 -118.35534 723 ft 0 kts 346°